AL7BX-WX Weather Reports


time (UTC)temp
F
wind
direction
speed
knots
gust
knots
rain 1hr
in
rain 24hr
in
rain mn
in
humidity
%
barometer
mb
20260504050003 58 159 1.7 3.5 0.00 0.00 0.00 42
20260504045613 58 154 1.7 5.2 0.00 0.00 0.00 42
20260504044712 58 157 0.9 6.1 0.00 0.00 0.00 42
20260504043603 59 284 0.0 1.7 0.00 0.00 0.00 40
20260504042703 59 279 2.6 5.2 0.00 0.00 0.00 40
20260504042012 60 257 1.7 5.2 0.00 0.00 0.00 39
20260504040903 61 114 1.7 4.3 0.00 0.00 0.00 38
20260504040003 61 121 4.3 10.4 0.00 0.00 0.00 37
20260504035403 61 198 3.5 10.4 0.00 0.00 0.00 33
20260504034505 61 121 1.7 2.6 0.00 0.00 0.00 38
20260504033813 61 126 2.6 6.1 0.00 0.00 0.00 38
20260504032703 60 180 2.6 6.1 0.00 0.00 0.00 39
20260504031803 61 155 3.5 7.8 0.00 0.00 0.00 39
20260504030903 61 144 4.3 11.3 0.00 0.00 0.00 39
20260504030004 61 153 5.2 11.3 0.00 0.00 0.00 38
20260504025403 61 147 5.2 13.9 0.00 0.00 0.00 38
20260504024503 61 159 4.3 11.3 0.00 0.00 0.00 38
20260504023603 60 119 3.5 8.7 0.00 0.00 0.00 39
20260504022703 60 110 3.5 9.6 0.00 0.00 0.00 41
20260504021803 60 96 6.1 14.8 0.00 0.00 0.00 41
20260504020903 60 107 6.1 14.8 0.00 0.00 0.00 42
20260504020003 60 110 6.1 14.8 0.00 0.00 0.00 42
20260504015403 61 129 6.1 13.9 0.00 0.00 0.00 41
20260504014503 62 139 5.2 13.0 0.00 0.00 0.00 39
20260504013603 63 148 7.8 15.6 0.00 0.00 0.00 35
20260504012914 64 149 9.6 18.2 0.00 0.00 0.00 34
20260504011803 65 141 7.0 15.6 0.00 0.00 0.00 31
20260504010903 65 149 6.1 11.3 0.00 0.00 0.00 31
20260504010214 65 151 4.3 11.3 0.00 0.00 0.00 31
20260504005403 65 153 5.2 13.0 0.00 0.00 0.00 31
20260504004503 65 139 7.8 18.2 0.00 0.00 0.00 30
20260504003603 66 141 10.4 18.2 0.00 0.00 0.00 30
20260504002913 66 149 11.3 20.0 0.00 0.00 0.00 30
20260504001803 68 156 6.1 23.5 0.00 0.00 0.00 28
20260504000903 69 153 5.2 11.3 0.00 0.00 0.00 26
20260504000003 70 153 7.0 13.9 0.00 0.00 0.00 25
20260503235403 70 164 7.0 14.8 0.00 0.00 0.00 25
20260503234503 71 154 8.7 15.6 0.00 0.00 0.00 25
20260503233603 73 170 7.8 19.1 0.00 0.00 0.00 24
20260503232703 74 187 5.2 11.3 0.00 0.00 0.00 23
20260503232012 74 210 5.2 11.3 0.00 0.00 0.00 22
20260503230903 75 191 5.2 15.6 0.00 0.00 0.00 23
20260503230003 75 143 6.1 11.3 0.00 0.00 0.00 22
20260503225403 74 132 6.1 11.3 0.00 0.00 0.00 21
20260503224503 75 130 4.3 13.0 0.00 0.00 0.00 21
20260503223813 74 112 4.3 8.7 0.00 0.00 0.00 22
20260503222703 75 164 4.3 9.6 0.00 0.00 0.00 22
20260503221803 76 230 7.0 13.0 0.00 0.00 0.00 23
20260503221113 76 210 7.0 13.0 0.00 0.00 0.00 22
20260503220003 77 191 5.2 12.2 0.00 0.00 0.00 21
20260503215403 76 171 6.1 12.2 0.00 0.00 0.00 21
20260503214503 76 184 6.1 15.6 0.00 0.00 0.00 21
20260503213603 76 166 6.1 11.3 0.00 0.00 0.00 22
20260503212703 76 187 8.7 15.6 0.00 0.00 0.00 21
20260503211803 77 209 7.8 15.6 0.00 0.00 0.00 21
20260503210903 76 194 6.1 18.2 0.00 0.00 0.00 22
20260503210003 76 197 6.1 12.2 0.00 0.00 0.00 21
20260503205403 75 229 6.1 12.2 0.00 0.00 0.00 21
20260503204503 76 208 6.1 12.2 0.00 0.00 0.00 20
20260503203813 76 213 5.2 12.2 0.00 0.00 0.00 21
20260503202703 75 217 6.1 14.8 0.00 0.00 0.00 22
20260503201803 75 187 6.1 16.5 0.00 0.00 0.00 22
20260503200903 75 236 8.7 13.9 0.00 0.00 0.00 21
20260503200003 74 207 6.1 16.5 0.00 0.00 0.00 21
20260503195403 74 196 5.2 15.6 0.00 0.00 0.00 21
20260503194503 74 220 6.1 11.3 0.00 0.00 0.00 21
20260503193603 73 205 7.0 13.0 0.00 0.00 0.00 21
20260503192703 74 201 7.0 15.6 0.00 0.00 0.00 20
20260503191803 73 175 7.8 18.2 0.00 0.00 0.00 20
20260503190903 73 180 7.8 17.4 0.00 0.00 0.00 20
20260503190003 73 193 7.8 21.7 0.00 0.00 0.00 22
20260503185403 72 198 7.8 21.7 0.00 0.00 0.00 21
20260503184503 72 210 7.0 14.8 0.00 0.00 0.00 22
20260503183603 74 213 7.0 15.6 0.00 0.00 0.00 21
20260503182704 73 199 8.7 19.1 0.00 0.00 0.00 22
20260503181803 72 213 6.1 17.4 0.00 0.00 0.00 24
20260503180903 71 212 6.1 13.0 0.00 0.00 0.00 24
20260503180003 72 214 7.0 14.8 0.00 0.00 0.00 23
20260503175403 72 210 6.1 11.3 0.00 0.00 0.00 23
20260503174712 72 203 7.0 12.2 0.00 0.00 0.00 23
20260503173603 72 209 6.1 11.3 0.00 0.00 0.00 24
20260503172913 71 201 7.0 13.9 0.00 0.00 0.00 24
20260503171803 71 206 6.1 13.0 0.00 0.00 0.00 23
20260503170903 71 215 5.2 10.4 0.00 0.00 0.00 22
20260503150903 56 341 1.7 2.6 0.00 0.00 0.00 38
20260503150214 55 341 1.7 4.3 0.00 0.00 0.00 37
20260503130903 42 149 0.9 5.2 0.00 0.00 0.00 49
20260503081112 55 219 1.7 5.2 0.00 0.00 0.00 31
20260503072703 61 101 5.2 10.4 0.00 0.00 0.00 23
20260503071803 60 102 4.3 9.6 0.00 0.00 0.00 23
20260503070903 59 92 3.5 7.8 0.00 0.00 0.00 25
20260503054503 60 107 2.6 7.8 0.00 0.00 0.00 25
20260503053603 60 108 4.3 9.6 0.00 0.00 0.00 24
20260503052703 60 102 6.1 11.3 0.00 0.00 0.00 24